This demonstration page uses our WeatherBlox Daily Observations layout. Learn more.

Hourly Observations for August 11, 2019

Temp ( °F °C ) Dew Point ( °F °C ) Humidity (%) Winds ( mph kmh ) Pressure ( in mb ) Visibility ( mi km ) Precip ( " mm )
12:15 am 00:15 Clear 71 21.8 71 21.4 98 98 ESE 6 9 29.91 1013 10 16.09344 0 0
12:35 am 00:35 Clear 72 22.1 71 21.7 98 98 E 6 9 29.88 1012 10 16.09344 0 0
12:55 am 00:55 Clear 73 22.6 72 22 96 96 ESE 7 11 29.85 1011 10 16.09344 0 0
1:15 am 01:15 Clear 73 22.8 72 22 95 95 E 8 13 29.8 1009 10 16.09344 0 0
1:35 am 01:35 Clear 74 23.3 72 22.3 94 94 SE 7 11 29.8 1009 10 16.09344 0 0
1:55 am 01:55 Clear 74 23.1 72 22.4 96 96 S 9 15 29.83 1010 10 16.09344 0 0
2:15 am 02:15 Clear with Light Drizzle 73 22.8 72 22.2 96 96 S 9 15 29.88 1012 10 16.09344 0 0
2:35 am 02:35 Partly Cloudy 73 23 72 22.1 95 95 SSE 3 6 29.88 1012 10 16.09344 0 0
2:55 am 02:55 Cloudy 74 23.2 73 22.5 96 96 SE 6 9 29.85 1011 10 16.09344 0 0
3:15 am 03:15 Partly Cloudy 74 23.6 73 23 96 96 SSE 6 9 29.85 1011 7 11.265408 0.01 0.254
3:35 am 03:35 Mostly Cloudy with Light Rain 72 22 69 20.8 93 93 S 10 17 29.91 1013 10 16.09344 0.01 0.254
3:55 am 03:55 Mostly Cloudy with Light Rain 70 21 67 19.5 91 91 SSW 8 13 29.91 1013 10 16.09344 0.01 0.254
4:15 am 04:15 Mostly Cloudy with Light Rain 69 20.5 67 19.6 95 95 SSE 3 6 29.91 1013 10 16.09344 0.01 0.254
4:35 am 04:35 Partly Cloudy with Light Rain 69 20.3 68 20 98 98 W 3 6 29.91 1013 10 16.09344 0.01 0.254
4:55 am 04:55 Clear 68 20.1 67 19.7 98 98 WNW 3 6 29.91 1013 10 16.09344 0.01 0.254
5:15 am 05:15 Clear 68 19.8 67 19.5 98 98 SSW 3 6 29.94 1014 10 16.09344 0 0
5:35 am 05:35 Clear 67 19.5 67 19.3 99 99 Calm 29.91 1013 10 16.09344 0 0
5:55 am 05:55 Clear 66 19 66 19 100 100 N 3 6 29.91 1013 10 16.09344 0 0
6:15 am 06:15 Clear 66 19 66 19 100 100 N 3 6 29.91 1013 10 16.09344 0 0
6:35 am 06:35 Clear 65 18.6 65 18.6 100 100 Calm 29.91 1013 10 16.09344 0.01 0.254
6:55 am 06:55 Sunny with Mist and Fog 65 18.2 65 18.2 100 100 N 5 7 29.94 1014 5 8.04672 0.01 0.254
7:15 am 07:15 Sunny with Mist and Fog 65 18.2 65 18.2 100 100 NE 3 6 29.94 1014 5 8.04672 0 0
7:35 am 07:35 Sunny 66 19 66 19 100 100 E 5 7 29.94 1014 10 16.09344 0 0
7:55 am 07:55 Sunny 66 19 66 19 100 100 Calm 29.94 1014 7 11.265408 0 0
8:15 am 08:15 Sunny 67 19.5 67 19.4 99 99 NW 5 7 29.94 1014 10 16.09344 0 0
8:35 am 08:35 Sunny 68 20.2 68 19.9 98 98 NNW 6 9 29.91 1013 10 16.09344 0 0
8:55 am 08:55 Sunny 70 21.1 68 20 93 93 NNW 7 11 29.91 1013 10 16.09344 0 0
9:15 am 09:15 Sunny 72 22.4 69 20.6 90 90 NNW 8 13 29.91 1013 10 16.09344 0 0
9:35 am 09:35 Sunny 73 22.8 69 20.6 87 87 NNE 10 17 29.91 1013 10 16.09344 0 0
9:55 am 09:55 Sunny 74 23.3 70 21 87 87 NE 10 17 29.91 1013 10 16.09344 0 0
10:15 am 10:15 Partly Cloudy 75 24 73 22.7 92 92 NE 16 26 29.88 1012 10 16.09344 0 0
10:35 am 10:35 Mostly Cloudy 77 25.1 73 22.9 88 88 ENE 12 19 29.88 1012 10 16.09344 0 0
10:55 am 10:55 Cloudy 77 24.8 73 22.6 88 88 NE 12 19 29.91 1013 7 11.265408 0 0
11:15 am 11:15 Cloudy 77 24.9 73 22.7 88 88 ENE 14 22 29.91 1013 10 16.09344 0 0
11:35 am 11:35 Cloudy 76 24.6 72 22.3 87 87 E 9 15 29.91 1013 10 16.09344 0 0
11:55 am 11:55 Cloudy 76 24.7 72 22.4 87 87 E 8 13 29.91 1013 10 16.09344 0 0
12:15 pm 12:15 Cloudy 77 24.9 72 22.3 86 86 E 12 19 29.91 1013 10 16.09344 0 0
12:35 pm 12:35 Cloudy 77 25.2 72 22.4 85 85 E 8 13 29.91 1013 10 16.09344 0 0
12:55 pm 12:55 Cloudy 80 26.4 73 22.5 79 79 ESE 10 17 29.91 1013 10 16.09344 0 0
1:15 pm 13:15 Mostly Cloudy 81 27.1 73 22.6 76 76 E 13 20 29.85 1011 10 16.09344 0 0
1:35 pm 13:35 Partly Cloudy 82 27.9 73 22.7 73 73 ESE 12 19 29.85 1011 10 16.09344 0 0
1:55 pm 13:55 Mostly Cloudy 82 27.9 73 23 75 75 ESE 12 19 29.85 1011 10 16.09344 0 0
2:15 pm 14:15 Cloudy 83 28.1 74 23.2 75 75 E 12 19 29.85 1011 10 16.09344 0 0
2:35 pm 14:35 Mostly Cloudy 82 27.8 74 23.3 77 77 E 12 19 29.85 1011 10 16.09344 0 0
2:55 pm 14:55 Mostly Cloudy 83 28.6 74 23.2 73 73 ESE 12 19 29.85 1011 10 16.09344 0 0
3:15 pm 15:15 Mostly Cloudy 84 29 74 23.1 71 71 E 14 22 29.83 1010 10 16.09344 0 0
3:35 pm 15:35 Mostly Cloudy 84 29.1 74 23.1 70 70 SSE 15 24 29.83 1010 10 16.09344 0 0
3:55 pm 15:55 Mostly Cloudy 83 28.6 73 22.9 71 71 SE 12 19 29.83 1010 10 16.09344 0 0
4:15 pm 16:15 Partly Cloudy 85 29.2 73 23 69 69 SSE 14 22 29.83 1010 10 16.09344 0 0
4:35 pm 16:35 Partly Cloudy 85 29.2 73 23 69 69 SE 9 15 29.83 1010 10 16.09344 0 0
4:55 pm 16:55 Partly Cloudy 85 29.5 73 22.5 66 66 ESE 12 19 29.8 1009 10 16.09344 0 0
5:15 pm 17:15 Partly Cloudy 85 29.3 72 22.4 66 66 SSE 12 19 29.8 1009 10 16.09344 0 0
5:35 pm 17:35 Partly Cloudy 85 29.3 72 22.4 66 66 SSE 12 19 29.8 1009 10 16.09344 0 0
5:55 pm 17:55 Partly Cloudy 85 29.2 72 22.4 67 67 SSE 13 20 29.77 1008 10 16.09344 0 0
6:15 pm 18:15 Partly Cloudy 84 29 72 22 66 66 SE 10 17 29.77 1008 10 16.09344 0 0
6:35 pm 18:35 Sunny 84 29 71 21.9 66 66 SSE 12 19 29.77 1008 10 16.09344 0 0
6:55 pm 18:55 Sunny 83 28.5 72 22.1 68 68 SE 13 20 29.77 1008 10 16.09344 0 0
7:15 pm 19:15 Partly Cloudy 82 27.5 72 22.1 72 72 SE 8 13 29.77 1008 10 16.09344 0 0
7:35 pm 19:35 Partly Cloudy 81 27.1 72 22.4 76 76 ESE 10 17 29.74 1007 10 16.09344 0 0
7:55 pm 19:55 Sunny 80 26.6 72 22.4 78 78 ESE 9 15 29.74 1007 10 16.09344 0 0
8:15 pm 20:15 Sunny 79 26.1 73 22.5 81 81 ESE 8 13 29.74 1007 10 16.09344 0 0
8:35 pm 20:35 Sunny 79 26 72 22.3 80 80 ESE 9 15 29.74 1007 10 16.09344 0 0
8:55 pm 20:55 Clear 78 25.7 72 22.2 81 81 ESE 9 15 29.74 1007 10 16.09344 0 0
9:15 pm 21:15 Clear 77 25.1 72 22.4 85 85 ESE 8 13 29.77 1008 10 16.09344 0 0
9:35 pm 21:35 Partly Cloudy 77 25.1 73 22.5 86 86 ESE 10 17 29.77 1008 10 16.09344 0 0
9:55 pm 21:55 Clear 77 25.1 73 22.5 86 86 E 9 15 29.77 1008 10 16.09344 0 0
10:15 pm 22:15 Partly Cloudy with Light Rain 77 25 73 22.5 86 86 E 8 13 29.8 1009 10 16.09344 0 0
10:35 pm 22:35 Mostly Cloudy with Light Rain 75 24 73 22.7 92 92 E 8 13 29.77 1008 10 16.09344 0 0
10:55 pm 22:55 Partly Cloudy with Light Drizzle 75 23.7 73 22.6 94 94 NE 5 7 29.77 1008 10 16.09344 0 0
11:15 pm 23:15 Mostly Cloudy with Light Rain 74 23.2 73 22.5 96 96 ENE 10 17 29.71 1006 10 16.09344 0 0
11:35 pm 23:35 Cloudy with Light Rain 74 23.3 73 22.6 96 96 ENE 12 19 29.71 1006 10 16.09344 0.01 0.254
11:55 pm 23:55 Cloudy 74 23.5 73 22.8 96 96 SE 7 11 29.71 1006 10 16.09344 0.01 0.254

Powered by AerisWeather